FW2916 Weather Reports


Display with metric or nautical units.
time (UTC)temp
F
wind
direction
speed
MPH
gust
MPH
rain 1hr
in
rain 24hr
in
rain mn
in
humidity
%
barometer
mb
20260901104547 77 217 0.0 4.0 0.00 0.00 0.00 70 1015.9
20260901103042 77 148 1.0 4.0 0.00 0.00 0.00 70 1015.9
20260901101609 77 148 0.0 4.0 0.00 0.00 0.00 71 1015.7
20260901100053 76 188 0.0 4.0 0.00 0.00 0.00 71 1015.7
20260901094556 75 0 0.0 1.0 0.00 0.00 0.00 74 1015.6
20260901093048 73 0 0.0 0.0 0.00 0.00 0.00 77 1015.4
20260901091601 74 0 0.0 1.0 0.00 0.00 0.00 76 1015.3
20260901090051 74 0 0.0 1.0 0.00 0.00 0.00 76 1015.2
20260901084553 74 0 0.0 2.0 0.00 0.00 0.00 77 1015.0
20260901083041 72 0 0.0 2.0 0.00 0.00 0.00 81 1015.1
20260901081548 70 0 0.0 0.0 0.00 0.00 0.00 86 1015.0
20260901080100 70 0 0.0 0.0 0.00 0.00 0.00 84 1014.9
20260901074554 70 0 0.0 0.0 0.00 0.00 0.00 84 1014.9
20260901073046 71 0 0.0 0.0 0.00 0.00 0.00 83 1015.1
20260901071541 71 0 0.0 0.0 0.00 0.00 0.00 82 1015.1
20260901070104 71 0 0.0 0.0 0.00 0.00 0.00 79 1015.2
20260901064547 72 0 0.0 0.0 0.00 0.00 0.00 78 1015.1
20260901063043 72 0 0.0 0.0 0.00 0.00 0.00 78 1015.2
20260901061542 72 0 0.0 0.0 0.00 0.00 0.00 77 1015.2
20260901060043 73 0 0.0 0.0 0.00 0.00 0.00 76 1015.3
20260901054548 73 0 0.0 0.0 0.00 0.00 0.00 75 1015.2
20260901053105 74 0 0.0 0.0 0.00 0.00 0.00 73 1015.1
20260901051557 76 0 0.0 0.0 0.00 0.00 0.00 71 1015.1
20260901050047 76 0 0.0 0.0 0.00 0.00 0.00 68 1015.0
20260901044541 77 0 0.0 0.0 0.00 0.00 0.00 66 1015.0
20260901043043 78 0 0.0 0.0 0.00 0.00 0.00 64 1014.9
20260901041553 79 0 0.0 0.0 0.00 0.00 0.00 63 1014.9
20260901040050 80 0 0.0 0.0 0.00 0.00 0.00 64 1014.9
20260901034545 80 0 0.0 0.0 0.00 0.00 0.00 64 1014.9
20260901033040 81 0 0.0 0.0 0.00 0.00 0.00 63 1014.8
20260901031557 82 0 0.0 2.0 0.00 0.00 0.00 63 1014.6
20260901030046 81 6 0.0 1.0 0.00 0.00 0.00 65 1014.6
20260901024545 81 0 0.0 0.0 0.00 0.00 0.00 68 1014.6
20260901023043 81 0 0.0 0.0 0.00 0.00 0.00 70 1014.5
20260901021551 82 0 0.0 0.0 0.00 0.00 0.00 70 1014.3
20260901020050 82 0 0.0 0.0 0.00 0.00 0.00 70 1014.2
20260901014548 84 0 0.0 0.0 0.00 0.00 0.00 67 1014.1
20260901013041 85 0 0.0 0.0 0.00 0.00 0.00 65 1013.8
20260901011541 86 0 0.0 0.0 0.00 0.00 0.00 64 1013.8
20260901010052 88 0 0.0 0.0 0.00 0.00 0.00 61 1013.7
20260901004548 89 0 0.0 0.0 0.00 0.00 0.00 57 1013.5
20260901003044 90 0 0.0 1.0 0.00 0.00 0.00 56 1013.5
20260901001550 92 0 0.0 1.0 0.00 0.00 0.00 54 1013.4
20260901000054 94 0 0.0 1.0 0.00 0.00 0.00 48 1013.5
20260831234604 96 161 0.0 1.0 0.00 0.00 0.00 45 1013.5
20260831233048 98 213 0.0 2.0 0.00 0.00 0.00 43 1013.5
20260831231554 98 223 1.0 3.0 0.00 0.00 0.00 41 1013.5
20260831230048 99 119 0.0 8.0 0.00 0.00 0.00 41 1013.5
20260831224547 101 214 0.0 6.0 0.00 0.00 0.00 41 1013.4
20260831223042 101 253 1.0 7.0 0.00 0.00 0.00 40 1013.4
20260831221542 102 0 2.0 7.0 0.00 0.00 0.00 38 1013.4
20260831220051 102 189 2.0 6.0 0.00 0.00 0.00 38 1013.5
20260831214546 102 204 2.0 6.0 0.00 0.00 0.00 38 1013.5
20260831213041 101 217 2.0 11.0 0.00 0.00 0.00 39 1013.6
20260831211551 102 330 2.0 10.0 0.00 0.00 0.00 39 1013.6
20260831210046 102 193 2.0 8.0 0.00 0.00 0.00 40 1013.6
20260831204541 101 82 2.0 8.0 0.00 0.00 0.00 40 1013.7
20260831203040 101 184 2.0 9.0 0.00 0.00 0.00 41 1013.9
20260831201547 101 145 2.0 8.0 0.00 0.00 0.00 41 1013.9
20260831200052 101 203 3.0 11.0 0.00 0.00 0.00 41 1013.9
20260831194547 101 110 3.0 9.0 0.00 0.00 0.00 42 1013.9
20260831193042 100 238 4.0 9.0 0.00 0.00 0.00 42 1014.0
20260831191542 100 196 2.0 11.0 0.00 0.00 0.00 46 1014.2
20260831190052 99 225 2.0 14.0 0.00 0.00 0.00 45 1014.3
20260831184546 99 160 3.0 8.0 0.00 0.00 0.00 47 1014.4
20260831183053 98 245 1.0 6.0 0.00 0.00 0.00 48 1014.5
20260831181548 97 193 2.0 7.0 0.00 0.00 0.00 48 1014.7
20260831180053 97 294 1.0 6.0 0.00 0.00 0.00 50 1014.9
20260831174547 96 236 3.0 11.0 0.00 0.00 0.00 51 1014.9
20260831173041 96 186 2.0 14.0 0.00 0.00 0.00 49 1015.1
20260831171551 95 165 2.0 11.0 0.00 0.00 0.00 48 1015.3
20260831170053 95 0 2.0 14.0 0.00 0.00 0.00 50 1015.5
20260831164543 94 193 2.0 9.0 0.00 0.00 0.00 52 1015.5
20260831163046 93 239 2.0 12.0 0.00 0.00 0.00 54 1015.6
20260831161601 91 211 2.0 9.0 0.00 0.00 0.00 56 1015.7
20260831160055 90 304 3.0 8.0 0.00 0.00 0.00 57 1015.6
20260831154611 89 237 2.0 10.0 0.00 0.00 0.00 59 1015.6
20260831153055 87 245 1.0 7.0 0.00 0.00 0.00 60 1015.7
20260831151558 86 328 1.0 6.0 0.00 0.00 0.00 62 1015.7
20260831150052 85 0 1.0 11.0 0.00 0.00 0.00 62 1015.5
20260831144545 84 0 2.0 6.0 0.00 0.00 0.00 64 1015.4
20260831143041 83 157 2.0 6.0 0.00 0.00 0.00 64 1015.6
20260831141556 83 146 3.0 9.0 0.00 0.00 0.00 63 1015.6
20260831140050 82 206 2.0 8.0 0.00 0.00 0.00 65 1015.7
20260831134541 82 213 3.0 7.0 0.00 0.00 0.00 65 1015.6
20260831133041 80 149 3.0 9.0 0.00 0.00 0.00 67 1015.6
20260831131552 78 279 2.0 9.0 0.00 0.00 0.00 71 1015.6
20260831130052 77 201 1.0 6.0 0.00 0.00 0.00 71 1015.5
20260831124540 75 176 1.0 5.0 0.00 0.00 0.00 74 1015.4
20260831123043 74 200 0.0 3.0 0.00 0.00 0.00 76 1015.0
20260831121557 73 0 0.0 2.0 0.00 0.00 0.00 78 1015.0
20260831120045 73 0 0.0 1.0 0.00 0.00 0.00 78 1015.0
20260831114550 73 0 0.0 2.0 0.00 0.00 0.00 78 1014.7
20260831113042 73 0 0.0 1.0 0.00 0.00 0.00 78 1014.6
20260831111553 73 192 0.0 1.0 0.00 0.00 0.00 77 1014.6
20260831110057 74 0 0.0 2.0 0.00 0.00 0.00 76 1014.3